Location: Les Salelles
(44.4192°N, 4.1044°E)
Time: 20:00:49
(UTC+00:00)

Meteor 2-5 Rocket - Pass Details

Date: 20 January 2021
Orbit: 833 x 911 km, 81.2° (Epoch: 04 March)

Event Time Altitude Azimuth Distance (km) Brightness Sun altitude
Rises 17:04:50 0° 184° (S) 3,403 7.2 -5.4°
Reaches altitude 10° 17:07:15 10° 182° (S) 2,462 6.5 -5.8°
Maximum altitude 17:12:48 76° 98° (E) 867 3.7 -6.7°
Drops below altitude 10° 17:18:21 10° 13° (NNE) 2,454 5.8 -7.6°
Sets 17:20:45 0° 13° (NNE) 3,392 6.5 -8.0°
